[[[{"header":{"parameterUnit":"kt","parameterCategory":2,"dx":1,"dy":1,"la1":30.253999710083008,"la2":30.299108505249023,"lo1":-89.0895004272461,"lo2":-89.04439544677734,"nx":28,"ny":28,"refTime":"2022-09-17T21:00:00:Z","depth":0,"parameterNumber":1,"parameterNumberName":"U-component_of_WINDS"},"data":[-1.4307,-1.4428,-1.4472,-1.4631,-1.4697,-1.4813,-1.4869,-1.4945,-1.5017,-1.5161,-1.5252,-1.5309,-1.5399,-1.5518,-1.5619,-1.5642,-1.5681,-1.5692,-1.5717,-1.5629,-1.5619,-1.561,-1.5584,-1.57,-1.57,-1.5802,-1.5803,-1.5804,-1.4238,-1.4304,-1.4401,-1.4525,-1.4608,-1.4624,-1.4724,-1.4793,-1.4896,-1.4986,-1.5078,-1.5209,-1.5318,-1.5406,-1.5518,-1.5576,-1.559,-1.5603,-1.5599,-1.5613,-1.552,-1.5492,-1.559,-1.559,-1.559,-1.559,-1.559,-1.559,-1.4124,-1.4195,-1.4295,-1.4401,-1.4475,-1.4558,-1.4633,-1.4701,-1.4797,-1.4919,-1.4954,-1.5072,-1.5171,-1.5328,-1.5392,-1.5486,-1.5479,-1.5507,-1.5514,-1.552,-1.552,-1.5365,-1.5507,-1.5507,-1.5507,-1.5507,-1.5507,0,-1.4053,-1.4085,-1.4181,-1.429,-1.437,-1.4459,-1.4548,-1.4596,-1.4679,-1.4754,-1.4868,-1.4941,-1.5085,-1.5196,-1.5312,-1.5373,-1.5397,-1.5405,-1.5425,-1.5409,-1.5379,-1.5395,-1.5241,-1.54,-1.5399,-1.5399,-1.5399,-1.5398,-1.394,-1.4018,-1.4145,-1.4206,-1.4265,-1.4364,-1.4432,-1.4499,-1.4568,-1.4688,-1.4748,-1.4861,-1.4955,-1.5129,-1.5209,-1.5317,-1.5329,-1.5385,-1.5346,-1.5327,-1.5329,-1.5323,-1.5331,-1.5391,-1.5391,-1.5392,-1.5393,0,-1.3872,-1.3944,-1.4079,-1.4196,-1.4229,-1.4307,-1.4408,-1.4482,-1.454,-1.4651,-1.4681,-1.4772,-1.4882,-1.4954,-1.5094,-1.5128,-1.5259,-1.5269,-1.5225,-1.523,-1.5286,-1.528,-1.5459,-1.5486,-1.5367,-1.5369,-1.5369,0,-1.3803,-1.3904,-1.4004,-1.4079,-1.4192,-1.4257,-1.4368,-1.4429,-1.4515,-1.4603,-1.4641,-1.4723,-1.4801,-1.4893,-1.4943,-1.5063,-1.5089,-1.5122,-1.5134,-1.5118,-1.5114,-1.5155,-1.5149,-1.5159,-1.5158,-1.5157,-1.5156,0,-1.3689,-1.386,-1.3982,-1.4032,-1.4168,-1.4224,-1.4283,-1.438,-1.4446,-1.4543,-1.4586,-1.4695,-1.4754,-1.4838,-1.4901,-1.4871,-1.5049,-1.5022,-1.5082,-1.5081,-1.5117,-1.5114,-1.5256,-1.5155,-1.5155,-1.5154,-1.5154,0,-1.3643,-1.374,-1.3906,-1.4019,-1.4062,-1.4142,-1.4253,-1.4339,-1.4438,-1.4474,-1.4552,-1.4586,-1.4697,-1.4664,-1.4818,-1.4761,-1.4818,-1.4859,-1.4865,-1.4879,-1.484,-1.4909,-1.5038,-1.5054,-1.4892,-1.489,-1.4888,0,-1.3492,-1.3679,-1.3735,-1.3892,-1.3988,-1.4024,-1.4115,-1.4202,-1.4258,-1.4348,-1.4411,-1.4513,-1.4504,-1.4546,-1.4613,-1.4681,-1.4754,-1.4674,-1.4802,-1.4806,-1.4774,-1.4893,-1.4894,-1.5002,-1.4861,-1.4864,-1.4866,0,-1.3383,-1.3547,-1.357,-1.3631,-1.3756,-1.3836,-1.3941,-1.4056,-1.4113,-1.4206,-1.4296,-1.4442,-1.444,-1.4509,-1.4549,-1.4614,-1.4707,-1.4604,-1.4608,-1.462,-1.4853,-1.4854,-1.4872,-1.4719,-1.4722,-1.4725,-1.4844,0,-1.3297,-1.34,-1.3468,-1.3599,-1.3673,-1.3775,-1.385,-1.3917,-1.3947,-1.4004,-1.4137,-1.4227,-1.4345,-1.4385,-1.4415,-1.4543,-1.4533,-1.4531,-1.4504,-1.4582,-1.4623,-1.464,-1.4436,-1.4435,-1.4435,-1.4435,0,0,-1.3134,-1.3283,-1.3341,-1.3445,-1.351,-1.3547,-1.3649,-1.3717,-1.3854,-1.3899,-1.3884,-1.4103,-1.4177,-1.433,-1.4361,-1.4409,-1.4438,-1.4408,-1.4544,-1.4556,-1.4567,-1.461,-1.4626,-1.4434,-1.4434,-1.4434,-1.4434,0,-1.3118,-1.3192,-1.3292,-1.3366,-1.3476,-1.3531,-1.3555,-1.3671,-1.3712,-1.3843,-1.3871,-1.396,-1.4133,-1.4207,-1.4268,-1.4392,-1.4408,-1.4422,-1.4463,-1.4538,-1.4551,-1.4562,-1.4606,-1.4621,-1.4433,-1.4433,-1.4434,0,-1.3024,-1.3109,-1.3165,-1.3315,-1.3388,-1.3486,-1.3476,-1.358,-1.3654,-1.3688,-1.3817,-1.3878,-1.3984,-1.4119,-1.4183,-1.4172,-1.4376,-1.4325,-1.4329,-1.4338,-1.4414,-1.4429,-1.4441,-1.427,-1.4269,-1.4269,0,0,-1.2999,-1.3095,-1.3207,-1.3318,-1.3361,-1.3445,-1.3504,-1.3541,-1.3635,-1.3672,-1.375,-1.3841,-1.3943,-1.4008,-1.4107,-1.4245,-1.4272,-1.4302,-1.431,-1.4316,-1.4327,-1.4405,-1.4419,-1.4265,-1.4265,-1.4265,0,0,-1.2988,-1.3122,-1.3135,-1.3273,-1.3361,-1.3479,-1.3544,-1.3563,-1.366,-1.3656,-1.3723,-1.375,-1.3878,-1.3936,-1.3883,-1.4098,-1.407,-1.4085,-1.4055,-1.4066,-1.4074,-1.4057,-1.3885,0,0,0,0,0,-1.3009,-1.3105,-1.3116,-1.315,-1.3341,-1.3473,-1.3498,-1.3554,-1.3533,-1.3583,-1.3651,-1.3665,-1.3921,-1.3876,-1.3909,-1.3968,-1.4222,-1.423,-1.4237,-1.4232,-1.4243,-1.4252,0,0,0,0,0,0,-1.3023,-1.3065,-1.3113,-1.3234,-1.3277,-1.347,-1.3446,-1.3464,-1.3529,-1.3529,-1.3651,-1.3669,-1.372,-1.3862,-1.3892,-1.3946,-1.3876,-1.4225,-1.4232,-1.4238,-1.4236,-1.4245,-1.4252,0,0,0,0,0,-1.3034,-1.3068,-1.3359,-1.3233,-1.3271,-1.3369,-1.3443,-1.3458,-1.3509,-1.3615,-1.3632,-1.3546,-1.372,-1.3748,-1.388,-1.3931,-1.3856,-1.3867,-1.4229,-1.4235,-1.4239,-1.424,0,0,0,0,0,0,-1.3043,-1.3083,-1.3367,-1.3381,-1.3201,-1.3359,-1.3386,-1.3452,-1.3591,-1.361,-1.3512,-1.3511,-1.3721,-1.3743,-1.3765,-1.3923,-1.384,-1.3851,-1.3857,-1.4233,-1.4237,-1.4241,0,0,0,0,0,0,-1.3065,-1.3094,-1.3374,-1.3331,-1.334,-1.335,-1.3374,-1.3494,-1.3592,-1.3481,-1.3484,-1.351,-1.3689,-1.374,-1.3757,-1.3942,-1.3828,-1.3838,-1.3845,-1.385,-1.4237,-1.424,0,0,0,0,0,0,-1.3079,-1.3103,-1.3327,-1.3335,-1.3342,-1.35,-1.3458,-1.365,-1.3554,-1.3474,-1.3547,-1.3544,-1.3685,-1.3703,-1.3751,-1.3929,-1.3939,-1.3828,-1.3835,-1.384,-1.3843,0,0,0,0,0,0,0,-1.3089,-1.2909,-1.3286,-1.3338,-1.3345,-1.3507,-1.3511,-1.3515,-1.3553,-1.355,-1.3547,-1.3545,-1.3768,-1.378,-1.3791,-1.3918,0,0,-1.3827,-1.3832,0,0,0,0,0,0,0,0,-1.29,-1.2907,-1.3287,-1.329,-1.3293,-1.3508,-1.3511,-1.3514,-1.3553,-1.355,-1.3548,-1.3546,-1.3771,-1.3781,-1.379,0,0,0,0,0,0,0,0,0,0,0,0,0,0,0,-1.3287,-1.329,0,-1.3508,-1.3511,-1.3513,-1.3552,-1.355,-1.3549,-1.3547,-1.3774,-1.3782,-1.3789,0,0,0,0,0,0,0,0,0,0,0,0,0,0,0,0,0,0,0,0,0,0,0,0,0,0,0,0,0,0,0,0,0,0,0,0,0,0,0,0,0,0,0,0,0,0,0,0,0,0,0,0,0,0,0,0,0,0,0,0,0,0,0,0,0,0,0,0,0]}],[{"header":{"parameterUnit":"kt","parameterCategory":2,"dx":1,"dy":1,"la1":30.253999710083008,"la2":30.299108505249023,"lo1":-89.0895004272461,"lo2":-89.04439544677734,"nx":28,"ny":28,"refTime":"2022-09-17T21:00:00:Z","depth":0,"parameterNumber":2,"parameterNumberName":"V-component_of_WINDS"},"data":[-5.2207,-5.2274,-5.2259,-5.2329,-5.2327,-5.2371,-5.2382,-5.2395,-5.2401,-5.2452,-5.2478,-5.247,-5.247,-5.2498,-5.2526,-5.2521,-5.2534,-5.2568,-5.2557,-5.2419,-5.2399,-5.2379,-5.2363,-5.2571,-5.2571,-5.2702,-5.2704,-5.2705,-5.2104,-5.2103,-5.2135,-5.2157,-5.2185,-5.2142,-5.2156,-5.2182,-5.2223,-5.2231,-5.2257,-5.2301,-5.2333,-5.2322,-5.235,-5.2381,-5.2363,-5.239,-5.2387,-5.2388,-5.224,-5.2222,-5.2403,-5.2403,-5.2403,-5.2403,-5.2403,-5.2403,-5.1912,-5.1953,-5.1957,-5.1993,-5.2,-5.2014,-5.2051,-5.204,-5.2071,-5.21,-5.2076,-5.2123,-5.2128,-5.2156,-5.2162,-5.2197,-5.2165,-5.219,-5.2196,-5.2203,-5.2212,-5.2024,-5.2201,-5.2201,-5.22,-5.22,-5.2199,0,-5.1766,-5.1751,-5.1782,-5.1809,-5.1834,-5.1853,-5.1868,-5.189,-5.1853,-5.1881,-5.192,-5.194,-5.1979,-5.2014,-5.2038,-5.2039,-5.1999,-5.1993,-5.201,-5.2023,-5.203,-5.2027,-5.1785,-5.1989,-5.1987,-5.1985,-5.1984,-5.1984,-5.1572,-5.1622,-5.162,-5.1644,-5.1649,-5.1688,-5.1708,-5.1672,-5.1695,-5.1708,-5.1746,-5.178,-5.1806,-5.1872,-5.1859,-5.1888,-5.1869,-5.1948,-5.1873,-5.1882,-5.187,-5.1868,-5.1872,-5.1964,-5.1966,-5.1968,-5.197,0,-5.1463,-5.1439,-5.1513,-5.1507,-5.1506,-5.1561,-5.1555,-5.1595,-5.158,-5.1633,-5.1643,-5.1621,-5.166,-5.1634,-5.1674,-5.1659,-5.1747,-5.1727,-5.1744,-5.1739,-5.1807,-5.1801,-5.2033,-5.2061,-5.1845,-5.1847,-5.1848,0,-5.1288,-5.1356,-5.1316,-5.1361,-5.1434,-5.1396,-5.147,-5.1465,-5.147,-5.1511,-5.1461,-5.1501,-5.1462,-5.1498,-5.1476,-5.1543,-5.1551,-5.1543,-5.1537,-5.1548,-5.1549,-5.1561,-5.1551,-5.1521,-5.152,-5.1519,-5.1518,0,-5.1121,-5.118,-5.1252,-5.1261,-5.1262,-5.1297,-5.1299,-5.1304,-5.1325,-5.1347,-5.1359,-5.1388,-5.1404,-5.1427,-5.1399,-5.1349,-5.1481,-5.1407,-5.1473,-5.1474,-5.1505,-5.1503,-5.1714,-5.1516,-5.1516,-5.1516,-5.1515,0,-5.0977,-5.1001,-5.1108,-5.1107,-5.1124,-5.1172,-5.1198,-5.1232,-5.1242,-5.1231,-5.1249,-5.1213,-5.127,-5.1198,-5.1275,-5.1218,-5.1237,-5.1235,-5.1239,-5.1243,-5.1164,-5.1286,-5.149,-5.151,-5.1246,-5.1243,-5.1241,0,-5.0792,-5.0895,-5.0863,-5.0967,-5.1011,-5.0951,-5.1003,-5.1014,-5.1004,-5.1039,-5.1028,-5.1069,-5.101,-5.1019,-5.1061,-5.1051,-5.1126,-5.104,-5.1091,-5.1093,-5.109,-5.1277,-5.1314,-5.1448,-5.1212,-5.1215,-5.1218,0,-5.0646,-5.0648,-5.0669,-5.0678,-5.0687,-5.0724,-5.0783,-5.0816,-5.0841,-5.0859,-5.0907,-5.0964,-5.0922,-5.0938,-5.0912,-5.0957,-5.1074,-5.0906,-5.0906,-5.0937,-5.1196,-5.123,-5.1253,-5.1047,-5.105,-5.1053,-5.1194,0,-5.0432,-5.0481,-5.0536,-5.0561,-5.0585,-5.0649,-5.0623,-5.0652,-5.0624,-5.0613,-5.0684,-5.0687,-5.0721,-5.074,-5.0714,-5.0826,-5.0803,-5.0758,-5.0687,-5.081,-5.0856,-5.0874,-5.062,-5.0618,-5.0616,-5.0614,0,0,-5.0261,-5.0331,-5.0296,-5.0354,-5.0372,-5.0311,-5.0381,-5.0392,-5.0417,-5.0431,-5.039,-5.0472,-5.0477,-5.0567,-5.0603,-5.0617,-5.0634,-5.0593,-5.0751,-5.0767,-5.0781,-5.0831,-5.0851,-5.0611,-5.061,-5.061,-5.0609,0,-5.0178,-5.0185,-5.0255,-5.0265,-5.0278,-5.0263,-5.028,-5.0283,-5.0279,-5.035,-5.0298,-5.0338,-5.0406,-5.0417,-5.0431,-5.0581,-5.054,-5.0593,-5.0682,-5.0733,-5.0751,-5.0767,-5.0819,-5.0839,-5.0604,-5.0605,-5.0605,0,-5.0029,-5.0031,-5.0063,-5.0104,-5.0112,-5.016,-5.0078,-5.0132,-5.0167,-5.0098,-5.0169,-5.0168,-5.0181,-5.027,-5.0308,-5.0273,-5.0456,-5.0394,-5.0405,-5.0409,-5.0458,-5.0479,-5.0499,-5.0245,-5.0244,-5.0243,0,0,-4.9961,-5.0007,-4.9999,-5.0084,-5.0093,-5.0072,-5.0095,-5.007,-5.0084,-5.009,-5.0087,-5.0102,-5.014,-5.0166,-5.0201,-5.0303,-5.0302,-5.0351,-5.0368,-5.0382,-5.0394,-5.0446,-5.0467,-5.0239,-5.0239,-5.0239,0,0,-4.9928,-4.9922,-4.9893,-4.9988,-5.0003,-5.0001,-5.0053,-5.0017,-5.0046,-5.0036,-4.9997,-4.9999,-5.0081,-5.0082,-5.0027,-5.0175,-5.0105,-5.0118,-5.0172,-5.0193,-5.0209,-5.0208,-4.9945,0,0,0,0,0,-4.983,-4.9923,-4.9896,-4.9908,-4.996,-5.0015,-5.0022,-4.9992,-4.9942,-4.9984,-4.9976,-4.9931,-5.0044,-4.9995,-5.0007,-5.0069,-5.0183,-5.0193,-5.0202,-5.0296,-5.0318,-5.0337,0,0,0,0,0,0,-4.9835,-4.985,-4.9893,-4.9895,-4.9907,-5.0012,-4.9921,-4.9916,-4.9937,-4.9927,-4.9934,-4.9932,-4.9907,-4.9986,-4.9998,-5.0057,-4.994,-5.0187,-5.0195,-5.0203,-5.0303,-5.0322,-5.0337,0,0,0,0,0,-4.9838,-4.9851,-4.9942,-4.9894,-4.9904,-4.9886,-4.9918,-4.9912,-4.9928,-4.9916,-4.9912,-4.9904,-4.991,-4.9917,-4.9993,-5.0053,-4.9932,-4.9937,-5.0192,-5.0199,-5.0205,-5.0312,0,0,0,0,0,0,-4.9841,-4.9846,-4.9943,-4.9945,-4.9857,-4.9879,-4.9882,-4.9909,-4.9915,-4.9912,-4.9883,-4.9876,-4.9913,-4.9918,-4.9924,-5.0053,-4.9925,-4.993,-4.9933,-5.0197,-5.0203,-5.0207,0,0,0,0,0,0,-4.9839,-4.9848,-4.9944,-4.99,-4.9896,-4.9873,-4.9876,-4.9936,-4.9916,-4.9881,-4.9875,-4.988,-4.9903,-4.9919,-4.9924,-5.0019,-4.992,-4.9925,-4.9928,-4.9929,-5.0202,-5.0206,0,0,0,0,0,0,-4.9842,-4.985,-4.9899,-4.9896,-4.9893,-4.9911,-4.9926,-4.9981,-4.9878,-4.9882,-4.9868,-4.9863,-4.9905,-4.9909,-4.9923,-5.0017,-5.0018,-4.992,-4.9923,-4.9925,-4.9927,0,0,0,0,0,0,0,-4.9845,-4.9801,-4.9933,-4.9894,-4.989,-4.9962,-4.9963,-4.9963,-4.9877,-4.9873,-4.9869,-4.9865,-4.9895,-4.99,-4.9905,-5.0016,0,0,-4.992,-4.9922,0,0,0,0,0,0,0,0,-4.9798,-4.98,-4.9933,-4.9933,-4.9933,-4.9962,-4.9963,-4.9963,-4.9876,-4.9873,-4.987,-4.9867,-4.9896,-4.99,-4.9904,0,0,0,0,0,0,0,0,0,0,0,0,0,0,0,-4.9933,-4.9933,0,-4.9962,-4.9963,-4.9963,-4.9876,-4.9873,-4.987,-4.9868,-4.9898,-4.9901,-4.9904,0,0,0,0,0,0,0,0,0,0,0,0,0,0,0,0,0,0,0,0,0,0,0,0,0,0,0,0,0,0,0,0,0,0,0,0,0,0,0,0,0,0,0,0,0,0,0,0,0,0,0,0,0,0,0,0,0,0,0,0,0,0,0,0,0,0,0,0,0]}]]]